Weather History for Volkel, Netherlands

Change the Weather History Date:

Thursday, December 5, 2013

  Actual Average Record
Temperature  
Mean Temperature 37 °F -  
Max Temperature 46 °F 41 °F 59 °F (2006)
Min Temperature 28 °F 32 °F 23 °F (1997)
Degree Days  
Heating Degree Days 28    
Moisture  
Dew Point 35 °F    
Average Humidity 84    
Maximum Humidity 100    
Minimum Humidity 70    
Precipitation  
Precipitation 0.00 in - - ()
Sea Level Pressure  
Sea Level Pressure 29.96 in    
Wind  
Wind Speed 17 mph ()    
Max Wind Speed 32 mph    
Max Gust Speed 52 mph    
Visibility 6.0 miles    
Events Rain , Thunderstorm    
Averages and records for this station are not official NWS values.
T = Trace of Precipitation, MM = Missing Value Source: Averaged Metar Reports

Daily Weather History Graph

Daily Weather History Graph

Search for Another Location

Airport:

Trip Planner

Search our weather history database for the weather conditions in past years. The results will help you decide how hot, cold, wet, or windy it might be!

Date:

Astronomy

Dec. 05, 2013 Rise Set
Actual Time 8:26 AM CET 4:28 PM CET
Civil Twilight 7:46 AM CET 5:08 PM CET
Nautical Twilight 7:04 AM CET 5:51 PM CET
Astronomical Twilight 6:23 AM CET 6:31 PM CET
Moon 10:25 AM CET (12/5) 7:41 PM CET (12/5)
Length of Visible Light 9h 21m
Length of Day
8h 02m
Waxing Crescent, 9% of the Moon is Illuminated
Dec 5
Waxing Crescent
Dec 9
First Quarter
Dec 17
Full
Dec 25
Last Quarter
Jan 1
New

Hourly Weather History & Observations

Time (CET) Temp. Windchill Dew Point Humidity Pressure Visibility Wind Dir Wind Speed Gust Speed Precip Events Conditions
12:25 AM 32.0 °F 26.4 °F 32.0 °F 100% 30.39 in 6.2 mi SW 5.8 mph - N/A   Unknown
12:55 AM 32.0 °F 26.4 °F 32.0 °F 100% 30.36 in 6.2 mi SW 5.8 mph - N/A   Unknown
1:25 AM 28.4 °F 20.4 °F 28.4 °F 100% 30.36 in 6.2 mi SW 8.1 mph - N/A   Unknown
1:55 AM 30.2 °F 22.6 °F 30.2 °F 100% 30.36 in 6.2 mi SW 8.1 mph - N/A   Unknown
2:25 AM 28.4 °F 21.2 °F 28.4 °F 100% 30.36 in 5.6 mi SW 6.9 mph - N/A   Mist
2:55 AM 32.0 °F 24.2 °F 30.2 °F 93% 30.36 in 6.2 mi SW 9.2 mph - N/A   Unknown
3:25 AM 32.0 °F 24.8 °F 30.2 °F 93% 30.36 in 6.2 mi SW 8.1 mph - N/A   Unknown
3:55 AM 32.0 °F 24.8 °F 30.2 °F 93% 30.33 in 6.2 mi SW 8.1 mph - N/A   Unknown
4:25 AM 32.0 °F 24.2 °F 30.2 °F 93% 30.33 in 6.2 mi SW 9.2 mph - N/A   Unknown
4:55 AM 32.0 °F 24.8 °F 30.2 °F 93% 30.33 in 6.2 mi SW 8.1 mph - N/A   Partly Cloudy
4:59 AM 32.0 °F 24.8 °F 30.2 °F 93% 30.33 in 6.2 mi SW 8.1 mph - N/A   Scattered Clouds
5:05 AM 32.0 °F 24.8 °F 32.0 °F 100% 30.33 in 6.2 mi SW 8.1 mph - N/A   Partly Cloudy
5:25 AM 33.8 °F 25.8 °F 32.0 °F 93% 30.30 in 6.2 mi SW 10.4 mph - N/A   Scattered Clouds
5:55 AM 33.8 °F 26.4 °F 33.8 °F 100% 30.30 in 6.2 mi SW 9.2 mph - N/A   Partly Cloudy
6:25 AM 35.6 °F 28.0 °F 33.8 °F 93% 30.27 in 6.2 mi SW 10.4 mph - N/A   Mostly Cloudy
6:55 AM 35.6 °F 28.0 °F 33.8 °F 93% 30.27 in 6.2 mi SW 10.4 mph - N/A   Overcast
7:25 AM 35.6 °F 27.5 °F 33.8 °F 93% 30.24 in 6.2 mi SW 11.5 mph - N/A   Overcast
7:55 AM 35.6 °F 27.1 °F 33.8 °F 93% 30.24 in 6.2 mi SW 12.7 mph - N/A   Mostly Cloudy
8:25 AM 35.6 °F 26.2 °F 33.8 °F 93% 30.21 in 6.2 mi SW 15.0 mph - N/A   Overcast
8:55 AM 37.4 °F 28.2 °F 33.8 °F 87% 30.18 in 6.2 mi SW 16.1 mph - N/A   Overcast
9:25 AM 37.4 °F 27.5 °F 35.6 °F 93% 30.18 in 6.2 mi SW 18.4 mph - N/A   Overcast
9:55 AM 37.4 °F 27.2 °F 35.6 °F 93% 30.15 in 6.2 mi SW 19.6 mph - N/A   Overcast
10:05 AM 37.4 °F 26.6 °F 35.6 °F 93% 30.15 in 6.2 mi SW 21.9 mph - N/A   Overcast
10:25 AM 37.4 °F 26.6 °F 33.8 °F 87% 30.15 in 6.2 mi SW 21.9 mph - N/A   Overcast
10:55 AM 39.2 °F 28.7 °F 33.8 °F 81% 30.12 in 6.2 mi SW 23.0 mph - N/A   Mostly Cloudy
11:25 AM 39.2 °F 28.3 °F 33.8 °F 81% 30.06 in 6.2 mi SW 25.3 mph - N/A   Partly Cloudy
11:55 AM 39.2 °F 28.0 °F 35.6 °F 87% 30.04 in 6.2 mi SW 26.5 mph - N/A   Partly Cloudy
12:25 PM 39.2 °F 28.0 °F 35.6 °F 87% 30.01 in 6.2 mi SW 26.5 mph - N/A   Mostly Cloudy
12:28 PM 41.0 °F 30.2 °F 33.8 °F 76% 30.01 in 6.2 mi SW 27.6 mph - N/A   Mostly Cloudy
12:35 PM 41.0 °F 29.8 °F 35.6 °F 81% 29.98 in 6.2 mi SW 29.9 mph - N/A   Mostly Cloudy
12:55 PM 41.0 °F 30.0 °F 35.6 °F 81% 29.98 in 6.2 mi SW 28.8 mph 40.3 mph N/A   Scattered Clouds
1:07 PM 41.0 °F 30.0 °F 35.6 °F 81% 29.95 in 6.2 mi SW 28.8 mph 41.4 mph N/A   Mostly Cloudy
1:08 PM 41.0 °F 30.0 °F 35.6 °F 81% 29.95 in 6.2 mi SW 28.8 mph - N/A   Mostly Cloudy
1:17 PM 41.0 °F 29.8 °F 35.6 °F 81% 29.95 in 6.2 mi SW 29.9 mph - N/A   Mostly Cloudy
1:18 PM 41.0 °F 29.5 °F 35.6 °F 81% 29.92 in 6.2 mi SW 32.2 mph - N/A   Mostly Cloudy
1:25 PM 41.0 °F 29.7 °F 35.6 °F 81% 29.92 in 6.2 mi SW 31.1 mph - N/A   Mostly Cloudy
1:29 PM 41.0 °F 29.7 °F 35.6 °F 81% 29.92 in 6.2 mi SW 31.1 mph - N/A   Mostly Cloudy
1:55 PM 42.8 °F 32.3 °F 35.6 °F 76% 29.89 in 6.2 mi SW 29.9 mph - N/A   Mostly Cloudy
2:04 PM 42.8 °F 32.7 °F 35.6 °F 76% 29.89 in 6.2 mi SW 27.6 mph 41.4 mph N/A   Mostly Cloudy
2:13 PM 41.0 °F 29.8 °F 35.6 °F 81% 29.86 in 6.2 mi SW 29.9 mph 43.7 mph N/A   Mostly Cloudy
2:20 PM 41.0 °F 30.2 °F 35.6 °F 81% 29.86 in 6.2 mi SW 27.6 mph 40.3 mph N/A Rain Light Rain
2:25 PM 41.0 °F 30.0 °F 35.6 °F 81% 29.86 in 6.2 mi WSW 28.8 mph 40.3 mph N/A Rain Light Rain
2:29 PM 41.0 °F 30.0 °F 35.6 °F 81% 29.86 in 6.2 mi WSW 28.8 mph 42.6 mph N/A Rain Light Rain
2:30 PM 41.0 °F 30.0 °F 35.6 °F 81% 29.86 in 6.2 mi WSW 28.8 mph 42.6 mph N/A Rain Light Rain
2:40 PM 41.0 °F 30.2 °F 35.6 °F 81% 29.86 in 6.2 mi WSW 27.6 mph 39.1 mph N/A   Drizzle
2:44 PM 41.0 °F 30.2 °F 37.4 °F 87% 29.86 in 6.2 mi WSW 27.6 mph 40.3 mph N/A   Drizzle
2:48 PM 41.0 °F 30.2 °F 37.4 °F 87% 29.86 in 6.2 mi WSW 27.6 mph 40.3 mph N/A   Drizzle
2:55 PM 41.0 °F 30.5 °F 37.4 °F 87% 29.86 in 6.2 mi WSW 26.5 mph - N/A Rain Light Rain
2:59 PM 42.8 °F 32.9 °F 37.4 °F 81% 29.86 in 6.2 mi WSW 26.5 mph - N/A Rain Light Rain
3:05 PM 42.8 °F 32.9 °F 37.4 °F 81% 29.86 in 6.2 mi WSW 26.5 mph - N/A   Drizzle
3:11 PM 42.8 °F 32.9 °F 37.4 °F 81% 29.83 in 6.2 mi WSW 26.5 mph 39.1 mph N/A   Drizzle
3:17 PM 42.8 °F 32.7 °F 37.4 °F 81% 29.83 in 6.2 mi WSW 27.6 mph 39.1 mph N/A   Light Drizzle
3:21 PM 42.8 °F 32.5 °F 37.4 °F 81% 29.83 in 6.2 mi WSW 28.8 mph 40.3 mph N/A   Drizzle
3:25 PM 42.8 °F 32.7 °F 37.4 °F 81% 29.83 in 6.2 mi WSW 27.6 mph 40.3 mph N/A   Drizzle
3:39 PM 42.8 °F 32.5 °F 37.4 °F 81% 29.83 in 6.2 mi WSW 28.8 mph - N/A   Drizzle
3:55 PM 42.8 °F 32.7 °F 39.2 °F 87% 29.80 in 6.2 mi WSW 27.6 mph 40.3 mph N/A   Drizzle
4:00 PM 42.8 °F 32.7 °F 39.2 °F 87% 29.80 in 6.2 mi WSW 27.6 mph 39.1 mph N/A   Drizzle
4:01 PM 42.8 °F 32.7 °F 39.2 °F 87% 29.80 in 6.2 mi WSW 27.6 mph 39.1 mph N/A   Drizzle
4:25 PM 44.6 °F 35.7 °F 39.2 °F 81% 29.80 in 6.2 mi WSW 24.2 mph - N/A   Overcast
4:32 PM 44.6 °F 35.1 °F 39.2 °F 81% 29.77 in 6.2 mi WSW 27.6 mph 39.1 mph N/A   Mostly Cloudy
4:33 PM 44.6 °F 34.7 °F 39.2 °F 81% 29.77 in 6.2 mi WSW 29.9 mph 43.7 mph N/A   Mostly Cloudy
4:40 PM 44.6 °F 35.1 °F 39.2 °F 81% 29.77 in 6.2 mi WSW 27.6 mph 43.7 mph N/A   Overcast
4:49 PM 44.6 °F 34.7 °F 39.2 °F 81% 29.77 in 5.6 mi WSW 29.9 mph 46.0 mph N/A   Mostly Cloudy
4:55 PM 46.4 °F 36.9 °F 39.2 °F 76% 29.77 in 4.3 mi WSW 32.2 mph 47.2 mph N/A   Mostly Cloudy
4:59 PM 46.4 °F 37.0 °F 39.2 °F 76% 29.77 in 5.6 mi WSW 31.1 mph 47.2 mph N/A   Mostly Cloudy
5:03 PM 46.4 °F 37.0 °F 39.2 °F 76% 29.77 in 6.2 mi WSW 31.1 mph 51.8 mph N/A   Overcast
5:07 PM 46.4 °F 37.0 °F 41.0 °F 81% 29.77 in 6.2 mi WSW 31.1 mph 51.8 mph N/A   Mostly Cloudy
5:20 PM 46.4 °F 37.4 °F 41.0 °F 81% 29.74 in 6.2 mi WSW 28.8 mph 46.0 mph N/A   Drizzle
5:25 PM 46.4 °F 37.5 °F 41.0 °F 81% 29.74 in 6.2 mi WSW 27.6 mph 46.0 mph N/A   Drizzle
5:29 PM 46.4 °F 37.7 °F 41.0 °F 81% 29.77 in 6.2 mi WSW 26.5 mph 40.3 mph N/A   Drizzle
5:33 PM 46.4 °F 37.5 °F 41.0 °F 81% 29.77 in 4.3 mi West 27.6 mph 41.4 mph N/A Rain Light Rain
5:40 PM 46.4 °F 37.7 °F 41.0 °F 81% 29.77 in 3.7 mi West 26.5 mph 42.6 mph N/A Rain Light Rain Showers
5:50 PM 44.6 °F 37.4 °F 41.0 °F 87% 29.80 in 5.6 mi WNW 16.1 mph 29.9 mph N/A Rain Light Rain
5:55 PM 44.6 °F 37.2 °F 41.0 °F 87% 29.80 in 4.3 mi WNW 17.3 mph 29.9 mph N/A Rain , Thunderstorm Light Thunderstorms and Rain
5:59 PM 44.6 °F 37.2 °F 41.0 °F 87% 29.80 in - WNW 17.3 mph - N/A Rain , Thunderstorm Thunderstorms and Rain
6:04 PM 44.6 °F 37.2 °F 41.0 °F 87% 29.80 in 6.2 mi West 17.3 mph 29.9 mph N/A Rain , Thunderstorm Thunderstorms and Rain
6:13 PM 42.8 °F 35.1 °F 41.0 °F 93% 29.80 in 6.2 mi West 16.1 mph 29.9 mph N/A Rain , Thunderstorm Light Thunderstorms and Rain
6:17 PM 44.6 °F 37.8 °F 41.0 °F 87% 29.80 in 6.2 mi West 15.0 mph 26.5 mph N/A   Mostly Cloudy
6:21 PM 44.6 °F 37.4 °F 37.4 °F 76% 29.80 in 6.2 mi WNW 16.1 mph 33.4 mph N/A   Mostly Cloudy
6:25 PM 42.8 °F 34.5 °F 37.4 °F 81% 29.80 in 6.2 mi WNW 18.4 mph 33.4 mph N/A Rain Light Rain
6:34 PM 44.6 °F 36.4 °F 37.4 °F 76% 29.80 in 6.2 mi West 20.7 mph 41.4 mph N/A Rain Light Rain Showers
6:36 PM 42.8 °F 33.3 °F 37.4 °F 81% 29.80 in 6.2 mi West 24.2 mph 41.4 mph N/A Rain Light Rain
6:51 PM 44.6 °F 36.1 °F 35.6 °F 71% 29.80 in 6.2 mi West 21.9 mph 33.4 mph N/A   Scattered Clouds
6:55 PM 44.6 °F 36.6 °F 35.6 °F 71% 29.80 in 6.2 mi West 19.6 mph 32.2 mph N/A   Scattered Clouds
7:10 PM 44.6 °F 35.9 °F 37.4 °F 76% 29.83 in 6.2 mi WNW 23.0 mph 41.4 mph N/A   Mostly Cloudy
7:25 PM 42.8 °F 33.5 °F 35.6 °F 76% 29.86 in 6.2 mi NW 23.0 mph 47.2 mph N/A   Mostly Cloudy
7:29 PM 42.8 °F 34.0 °F 35.6 °F 76% 29.86 in 6.2 mi NW 20.7 mph 39.1 mph N/A   Mostly Cloudy
7:37 PM 41.0 °F 32.5 °F 33.8 °F 76% 29.86 in 6.2 mi WNW 17.3 mph 31.1 mph N/A   Mostly Cloudy
7:55 PM 41.0 °F 33.5 °F 33.8 °F 76% 29.89 in 6.2 mi WNW 13.8 mph 27.6 mph N/A   Overcast
8:25 PM 41.0 °F 33.1 °F 32.0 °F 70% 29.89 in 6.2 mi WNW 15.0 mph 26.5 mph N/A   Scattered Clouds
8:50 PM 39.2 °F 30.8 °F 32.0 °F 75% 29.92 in 6.2 mi West 15.0 mph 31.1 mph N/A   Scattered Clouds
8:55 PM 39.2 °F 30.5 °F 33.8 °F 81% 29.92 in 6.2 mi WNW 16.1 mph 31.1 mph N/A Rain Light Rain
8:59 PM 39.2 °F 30.5 °F 33.8 °F 81% 29.92 in 6.2 mi WNW 16.1 mph 31.1 mph N/A   Mostly Cloudy
9:03 PM 39.2 °F 30.2 °F 33.8 °F 81% 29.92 in 6.2 mi West 17.3 mph 31.1 mph N/A   Mostly Cloudy
9:25 PM 37.4 °F 28.9 °F 33.8 °F 87% 29.95 in 6.2 mi West 13.8 mph - N/A   Mostly Cloudy
9:55 PM 37.4 °F 28.9 °F 33.8 °F 87% 29.95 in 6.2 mi West 13.8 mph - N/A   Mostly Cloudy
10:15 PM 39.2 °F 30.5 °F 32.0 °F 75% 29.95 in 6.2 mi West 16.1 mph - N/A   Mostly Cloudy
10:19 PM 37.4 °F 27.5 °F 32.0 °F 81% 29.95 in 6.2 mi WNW 18.4 mph 35.7 mph N/A Rain Light Rain
10:25 PM 37.4 °F 27.8 °F 33.8 °F 87% 29.95 in 6.2 mi WNW 17.3 mph 35.7 mph N/A Rain Light Rain
10:29 PM 37.4 °F 29.3 °F 32.0 °F 81% 29.95 in 6.2 mi WNW 12.7 mph 25.3 mph N/A   Mostly Cloudy
10:33 PM 37.4 °F 29.8 °F 32.0 °F 81% 29.95 in 6.2 mi WNW 11.5 mph - N/A   Scattered Clouds
10:39 PM 39.2 °F 30.5 °F 32.0 °F 75% 29.95 in 6.2 mi WNW 16.1 mph 32.2 mph N/A Rain Light Rain
10:44 PM 37.4 °F 27.5 °F 32.0 °F 81% 29.95 in 6.2 mi WNW 18.4 mph 32.2 mph N/A Rain Light Rain
10:45 PM 37.4 °F 28.2 °F 32.0 °F 81% 29.95 in 6.2 mi WNW 16.1 mph 32.2 mph N/A Rain Light Rain
10:55 PM 37.4 °F 30.8 °F 32.0 °F 81% 29.95 in 6.2 mi WNW 9.2 mph - N/A   Partly Cloudy
11:25 PM 37.4 °F 29.3 °F 32.0 °F 81% 29.95 in 6.2 mi West 12.7 mph - N/A   Partly Cloudy
11:31 PM 39.2 °F 31.2 °F 33.8 °F 81% 29.95 in 6.2 mi West 13.8 mph 25.3 mph N/A   Mostly Cloudy
11:32 PM 39.2 °F 30.5 °F 33.8 °F 81% 29.98 in 6.2 mi West 16.1 mph - N/A Rain Light Rain
11:41 PM 39.2 °F 30.5 °F 33.8 °F 81% 29.98 in 6.2 mi West 16.1 mph 27.6 mph N/A Rain Light Rain
11:45 PM 39.2 °F 30.8 °F 33.8 °F 81% 29.98 in 6.2 mi West 15.0 mph 27.6 mph N/A Rain Light Rain
11:50 PM 39.2 °F 30.5 °F 32.0 °F 75% 29.98 in 6.2 mi WNW 16.1 mph 28.8 mph N/A   Light Drizzle
11:55 PM 37.4 °F 27.5 °F 32.0 °F 81% 29.98 in 1.6 mi WNW 18.4 mph - N/A Rain Rain
11:59 PM 37.4 °F 27.5 °F 32.0 °F 81% 29.98 in 3.7 mi WNW 18.4 mph - N/A Rain Rain Showers